Radiation Dose at Monitoring Post of Fukushima Daini Nuclear Power Station
Date,Time,MP-1(microSv/h),MP-2(microSv/h),MP-3(microSv/h),MP-4(microSv/h),MP-5(microSv/h),MP-6(microSv/h),MP-7(microSv/h),Wind Direction,Wind Velocity(m/s),Rain
2024/03/04,00:00,0.146,0.131,0.208,0.198,0.206,0.117,0.076,west-northwest,5.5,No
2024/03/04,00:10,0.147,0.131,0.207,0.198,0.206,0.117,0.076,west,6.6,No
2024/03/04,00:20,0.147,0.131,0.208,0.198,0.206,0.117,0.076,west,7.4,No
2024/03/04,00:30,0.146,0.132,0.209,0.197,0.206,0.117,0.077,west,7.1,No
2024/03/04,00:40,0.146,0.131,0.209,0.196,0.207,0.116,0.076,west,5.7,No
2024/03/04,00:50,0.147,0.131,0.208,0.197,0.206,0.116,0.077,west-northwest,5.7,No
2024/03/04,01:00,0.147,0.130,0.208,0.197,0.206,0.116,0.076,west,4.3,No
2024/03/04,01:10,0.146,0.131,0.207,0.197,0.206,0.117,0.076,west-northwest,3.4,No
2024/03/04,01:20,0.147,0.130,0.207,0.197,0.206,0.117,0.076,west-northwest,2.7,No
2024/03/04,01:30,0.147,0.130,0.208,0.197,0.205,0.116,0.076,west-northwest,2.9,No
2024/03/04,01:40,0.147,0.130,0.207,0.197,0.206,0.116,0.076,west-northwest,3.6,No
2024/03/04,01:50,0.146,0.131,0.208,0.197,0.206,0.116,0.076,west-northwest,2.8,No
2024/03/04,02:00,0.145,0.131,0.208,0.196,0.205,0.116,0.076,northwest,2.0,No
2024/03/04,02:10,0.146,0.131,0.208,0.197,0.206,0.116,0.076,north-northwest,0.9,No
2024/03/04,02:20,0.146,0.130,0.207,0.198,0.205,0.116,0.076,north,0.8,No
2024/03/04,02:30,0.147,0.129,0.207,0.197,0.206,0.116,0.077,-,CALM,No
2024/03/04,02:40,0.146,0.130,0.207,0.198,0.205,0.118,0.076,-,CALM,No
2024/03/04,02:50,0.146,0.130,0.207,0.198,0.205,0.116,0.076,east-northeast,1.9,No
2024/03/04,03:00,0.147,0.130,0.207,0.197,0.206,0.117,0.076,north,0.6,No
2024/03/04,03:10,0.146,0.129,0.208,0.197,0.205,0.116,0.076,-,CALM,No
2024/03/04,03:20,0.147,0.130,0.207,0.197,0.205,0.117,0.076,west-northwest,1.3,No
2024/03/04,03:30,0.146,0.130,0.208,0.197,0.206,0.117,0.076,north,1.6,No
2024/03/04,03:40,0.147,0.130,0.208,0.197,0.206,0.116,0.077,north-northwest,2.1,No
2024/03/04,03:50,0.146,0.130,0.208,0.196,0.206,0.117,0.076,northwest,2.1,No
2024/03/04,04:00,0.146,0.130,0.207,0.197,0.205,0.117,0.077,northwest,2.6,No
2024/03/04,04:10,0.147,0.130,0.208,0.198,0.205,0.116,0.076,north-northwest,3.3,No
2024/03/04,04:20,0.147,0.130,0.209,0.197,0.205,0.116,0.076,north-northwest,3.1,No
2024/03/04,04:30,0.146,0.131,0.209,0.197,0.206,0.117,0.076,north-northwest,3.1,No
2024/03/04,04:40,0.146,0.130,0.209,0.198,0.206,0.116,0.077,north-northwest,3.1,No
2024/03/04,04:50,0.147,0.130,0.208,0.198,0.206,0.117,0.076,north,4.4,No
2024/03/04,05:00,0.147,0.131,0.209,0.199,0.207,0.116,0.077,north,5.2,No
2024/03/04,05:10,0.146,0.130,0.208,0.197,0.207,0.116,0.076,north-northwest,5.2,No
2024/03/04,05:20,0.147,0.131,0.208,0.198,0.207,0.116,0.076,north-northwest,6.1,No
2024/03/04,05:30,0.146,0.130,0.209,0.198,0.206,0.117,0.076,north,6.7,No
2024/03/04,05:40,0.147,0.130,0.208,0.197,0.206,0.117,0.077,north-northwest,6.6,No
2024/03/04,05:50,0.147,0.131,0.207,0.197,0.206,0.117,0.077,north-northwest,6.6,No
2024/03/04,06:00,0.147,0.131,0.209,0.197,0.206,0.116,0.076,north,7.3,No
2024/03/04,06:10,0.146,0.130,0.208,0.198,0.206,0.116,0.077,north-northwest,7.1,No
2024/03/04,06:20,0.147,0.131,0.208,0.197,0.207,0.116,0.076,north-northwest,6.3,No
2024/03/04,06:30,0.147,0.129,0.208,0.197,0.207,0.117,0.077,north-northwest,6.4,No
2024/03/04,06:40,0.146,0.130,0.208,0.196,0.206,0.116,0.076,north-northwest,6.0,No
2024/03/04,06:50,0.146,0.130,0.208,0.198,0.206,0.116,0.076,north-northwest,6.4,No
2024/03/04,07:00,0.146,0.131,0.208,0.197,0.206,0.117,0.075,north-northwest,7.1,No
2024/03/04,07:10,0.148,0.130,0.209,0.197,0.205,0.117,0.076,north-northwest,7.7,No
2024/03/04,07:20,0.146,0.130,0.208,0.197,0.207,0.116,0.076,north-northwest,7.9,No
2024/03/04,07:30,0.146,0.130,0.208,0.196,0.206,0.116,0.076,north-northwest,7.4,No
2024/03/04,07:40,0.147,0.130,0.207,0.198,0.206,0.116,0.076,north-northwest,7.0,No
2024/03/04,07:50,0.147,0.131,0.208,0.198,0.206,0.116,0.076,north-northwest,7.4,No
2024/03/04,08:00,0.147,0.131,0.208,0.197,0.206,0.116,0.075,north-northwest,7.3,No
2024/03/04,08:10,0.147,0.130,0.208,0.196,0.207,0.116,0.076,north-northwest,8.4,No
2024/03/04,08:20,0.147,0.131,0.208,0.197,0.206,0.115,0.077,north-northwest,7.8,No
2024/03/04,08:30,0.146,0.130,0.207,0.197,0.206,0.116,0.076,north-northwest,4.4,No
2024/03/04,08:40,0.147,0.130,0.206,0.197,0.206,0.116,0.076,north,5.8,No
2024/03/04,08:50,0.147,0.129,0.207,0.196,0.205,0.116,0.075,north-northwest,5.3,No
2024/03/04,09:00,0.146,0.130,0.208,0.197,0.207,0.116,0.076,north-northwest,4.8,No
2024/03/04,09:10,0.147,0.130,0.207,0.196,0.207,0.116,0.075,north-northwest,5.0,No
2024/03/04,09:20,0.147,0.129,0.208,0.196,0.207,0.116,0.075,north,3.2,No
2024/03/04,09:30,0.146,0.130,0.207,0.198,0.206,0.116,0.076,north-northeast,4.0,No
2024/03/04,09:40,0.146,0.129,0.208,0.196,0.207,0.116,0.076,north-northeast,4.9,No
2024/03/04,09:50,0.146,0.130,0.208,0.198,0.206,0.116,0.075,north-northeast,4.5,No
2024/03/04,10:00,0.146,0.130,0.207,0.196,0.206,0.116,0.076,north-northeast,3.5,No
2024/03/04,10:10,0.147,0.130,0.207,0.197,0.207,0.116,0.076,north-northeast,4.1,No
2024/03/04,10:20,0.147,0.130,0.208,0.198,0.207,0.116,0.076,north-northeast,4.5,No
2024/03/04,10:30,0.146,0.130,0.208,0.197,0.206,0.116,0.076,northeast,3.9,No
2024/03/04,10:40,0.147,0.130,0.206,0.196,0.207,0.117,0.076,northeast,3.5,No
2024/03/04,10:50,0.146,0.130,0.208,0.198,0.206,0.116,0.076,east-northeast,2.5,No
2024/03/04,11:00,0.146,0.130,0.208,0.197,0.206,0.116,0.076,east-southeast,1.2,No
2024/03/04,11:10,0.146,0.130,0.207,0.198,0.206,0.117,0.076,north-northwest,2.6,No
2024/03/04,11:20,0.146,0.130,0.207,0.197,0.204,0.117,0.076,west,5.5,No
2024/03/04,11:30,0.146,0.130,0.207,0.197,0.206,0.116,0.076,west,7.1,No
2024/03/04,11:40,0.147,0.129,0.207,0.197,0.206,0.117,0.076,west,7.5,No
2024/03/04,11:50,0.145,0.130,0.207,0.196,0.206,0.117,0.075,west-northwest,4.7,No
2024/03/04,12:00,0.146,0.130,0.207,0.197,0.206,0.116,0.076,northwest,8.4,No
2024/03/04,12:10,0.146,0.130,0.208,0.197,0.204,0.116,0.076,west-northwest,7.7,No
2024/03/04,12:20,0.145,0.130,0.206,0.196,0.206,0.116,0.076,west-northwest,11.2,No
2024/03/04,12:30,0.147,0.130,0.209,0.197,0.204,0.116,0.075,west,6.4,No
2024/03/04,12:40,0.146,0.130,0.207,0.195,0.207,0.116,0.076,west,7.3,No
2024/03/04,12:50,0.146,0.130,0.209,0.196,0.205,0.116,0.075,west-northwest,8.1,No
2024/03/04,13:00,0.145,0.129,0.206,0.197,0.206,0.115,0.076,west-northwest,8.6,No
2024/03/04,13:10,0.146,0.131,0.209,0.197,0.205,0.116,0.076,west-northwest,10.3,No
2024/03/04,13:20,0.146,0.130,0.208,0.198,0.208,0.117,0.076,west-northwest,8.4,No
2024/03/04,13:30,0.147,0.130,0.207,0.197,0.206,0.116,0.076,west-northwest,8.5,No
2024/03/04,13:40,0.146,0.130,0.208,0.198,0.207,0.116,0.075,west-northwest,6.4,No
2024/03/04,13:50,0.145,0.131,0.207,0.197,0.205,0.116,0.077,west,10.1,No
2024/03/04,14:00,0.147,0.130,0.208,0.198,0.205,0.116,0.076,west,9.8,No
2024/03/04,14:10,0.145,0.130,0.207,0.196,0.206,0.116,0.076,west-northwest,6.5,No
2024/03/04,14:20,0.146,0.130,0.209,0.198,0.205,0.116,0.077,west,7.5,No
2024/03/04,14:30,0.145,0.130,0.208,0.197,0.206,0.117,0.076,west,7.0,No
2024/03/04,14:40,0.146,0.129,0.209,0.197,0.205,0.116,0.076,west-northwest,9.2,No
2024/03/04,14:50,0.145,0.129,0.208,0.197,0.206,0.116,0.076,west-northwest,8.4,No
2024/03/04,15:00,0.146,0.131,0.208,0.197,0.205,0.116,0.075,west-northwest,9.8,No
2024/03/04,15:10,0.146,0.131,0.208,0.197,0.206,0.116,0.075,west,13.9,No
2024/03/04,15:20,0.147,0.131,0.208,0.198,0.206,0.116,0.076,west,8.4,No
2024/03/04,15:30,0.147,0.131,0.208,0.198,0.207,0.117,0.075,west-northwest,11.1,No
2024/03/04,15:40,0.145,0.131,0.209,0.198,0.208,0.116,0.076,northwest,6.2,No
2024/03/04,15:50,0.147,0.130,0.209,0.198,0.206,0.117,0.076,northwest,6.0,No
2024/03/04,16:00,0.147,0.131,0.209,0.198,0.207,0.115,0.076,northwest,6.1,No
2024/03/04,16:10,0.148,0.130,0.208,0.198,0.207,0.117,0.075,west-northwest,6.7,No
2024/03/04,16:20,0.148,0.130,0.208,0.198,0.206,0.116,0.076,northwest,4.7,No
2024/03/04,16:30,0.147,0.130,0.209,0.198,0.206,0.116,0.076,west-northwest,4.0,No
2024/03/04,16:40,0.147,0.130,0.210,0.198,0.206,0.117,0.076,west-northwest,4.5,No
2024/03/04,16:50,0.147,0.130,0.209,0.198,0.206,0.117,0.076,west,8.9,No
2024/03/04,17:00,0.147,0.131,0.209,0.197,0.205,0.117,0.076,west,7.7,No
2024/03/04,17:10,0.148,0.130,0.208,0.196,0.206,0.117,0.076,west,7.0,No
2024/03/04,17:20,0.146,0.130,0.208,0.198,0.205,0.117,0.076,west,5.9,No
2024/03/04,17:30,0.148,0.130,0.209,0.198,0.206,0.117,0.077,west,7.4,No
2024/03/04,17:40,0.147,0.131,0.209,0.198,0.205,0.117,0.076,west,6.9,No
2024/03/04,17:50,0.147,0.131,0.207,0.198,0.206,0.117,0.076,west,7.0,No
2024/03/04,18:00,0.147,0.131,0.209,0.199,0.206,0.117,0.075,west,6.6,No
2024/03/04,18:10,0.146,0.131,0.209,0.198,0.206,0.116,0.076,west,4.8,No
2024/03/04,18:20,0.147,0.131,0.208,0.197,0.206,0.116,0.075,west-southwest,5.5,No
2024/03/04,18:30,0.147,0.131,0.209,0.197,0.206,0.116,0.075,west,4.4,No
2024/03/04,18:40,0.148,0.131,0.208,0.198,0.206,0.117,0.076,west,4.1,No
2024/03/04,18:50,0.147,0.130,0.208,0.199,0.205,0.116,0.076,west,3.6,No
2024/03/04,19:00,0.147,0.129,0.209,0.197,0.205,0.117,0.076,west,4.5,No
2024/03/04,19:10,0.147,0.130,0.208,0.197,0.207,0.116,0.077,west,4.0,No
2024/03/04,19:20,0.147,0.131,0.208,0.198,0.206,0.116,0.076,west-southwest,3.1,No
2024/03/04,19:30,0.147,0.130,0.209,0.198,0.206,0.116,0.075,west-southwest,3.5,No
2024/03/04,19:40,0.147,0.130,0.208,0.197,0.206,0.116,0.076,west-southwest,3.3,No
2024/03/04,19:50,0.146,0.130,0.209,0.198,0.204,0.115,0.076,west,2.9,No
2024/03/04,20:00,0.148,0.131,0.208,0.198,0.205,0.117,0.076,west,3.4,No
2024/03/04,20:10,0.146,0.130,0.209,0.198,0.205,0.116,0.076,west-southwest,4.0,No
2024/03/04,20:20,0.147,0.130,0.208,0.198,0.205,0.117,0.076,west-southwest,3.8,No
2024/03/04,20:30,0.146,0.130,0.209,0.198,0.205,0.116,0.075,west-southwest,3.7,No
2024/03/04,20:40,0.146,0.131,0.207,0.199,0.206,0.117,0.076,west,4.5,No
2024/03/04,20:50,0.147,0.130,0.209,0.198,0.205,0.115,0.076,west,5.5,No
2024/03/04,21:00,0.148,0.130,0.209,0.197,0.205,0.116,0.075,west,4.9,No
2024/03/04,21:10,0.146,0.130,0.208,0.198,0.205,0.117,0.076,west,3.8,No
2024/03/04,21:20,0.146,0.131,0.208,0.197,0.206,0.116,0.076,west,2.9,No
2024/03/04,21:30,0.147,0.130,0.208,0.197,0.206,0.116,0.077,west,2.2,No
2024/03/04,21:40,0.148,0.130,0.209,0.197,0.206,0.116,0.076,west,1.2,No
2024/03/04,21:50,0.146,0.130,0.209,0.198,0.205,0.116,0.076,west-southwest,1.4,No
2024/03/04,22:00,0.148,0.131,0.208,0.198,0.206,0.116,0.076,west,1.7,No
2024/03/04,22:10,0.147,0.130,0.209,0.198,0.206,0.116,0.075,west-northwest,1.2,No
2024/03/04,22:20,0.147,0.131,0.208,0.196,0.205,0.116,0.077,west-northwest,2.3,No
2024/03/04,22:30,0.147,0.130,0.210,0.197,0.207,0.117,0.076,west-northwest,1.7,No
2024/03/04,22:40,0.146,0.130,0.209,0.198,0.207,0.116,0.076,north-northwest,2.1,No
2024/03/04,22:50,0.147,0.130,0.209,0.198,0.206,0.116,0.076,north-northwest,2.8,No
2024/03/04,23:00,0.148,0.130,0.208,0.198,0.206,0.116,0.076,north,2.4,No
2024/03/04,23:10,0.148,0.130,0.208,0.197,0.205,0.116,0.077,north,3.1,No
2024/03/04,23:20,0.147,0.131,0.209,0.198,0.205,0.116,0.076,north-northwest,2.6,No
2024/03/04,23:30,0.147,0.131,0.209,0.199,0.206,0.117,0.076,north-northwest,2.3,No
2024/03/04,23:40,0.148,0.131,0.208,0.198,0.205,0.117,0.076,northwest,1.6,No
2024/03/04,23:50,0.147,0.130,0.208,0.198,0.207,0.116,0.076,north-northwest,2.2,No
